Regional Weather Roundup
Issued by NWS

Home | Current Version | Previous Version | Text Only | Print | Product List | Glossary Off
Versions: 1 2 3 4 5 6 7 8 9 10 11 12 13 14 15 16 17 18 19 20 21 22 23 24 25 26 27 28 29 30 31 32 33 34 35 36 37 38 39 40 41 42 43 44 45 46 47 48 49 50

000
ASUS43 KOAX 031502
RWRNE

WEATHER ROUNDUP FOR NEBRASKA
NATIONAL WEATHER SERVICE OMAHA NE
900 AM CST SAT DEC 03 2016

NOTES: SATELLITE DATA IS BEING USED TO AUGMENT CLOUD COVER ABOVE
       12000 FEET.
       "FAIR" INDICATES FEW OR NO CLOUDS BELOW 12,000 FEET WITH NO
       SIGNIFICANT WEATHER AND/OR OBSTRUCTIONS TO VISIBILITY.

  * THESE STATIONS DO NOT REPORT WEATHER SUCH AS RAIN...SNOW OR FOG.

NEZ001>004-019>022-054>056-031600-
NEBRASKA PANHANDLE

CITY           SKY/WX    TMP DP  RH WIND       PRES   REMARKS
SCOTTSBLUFF    CLEAR     19  13  77 E6        30.00F WCI  11
ALLIANCE       CLEAR     24  19  81 S13       29.99S WCI  12
CHADRON        CLEAR     26  14  60 SW9       29.96F WCI  17
KIMBALL        CLEAR     16  14  91 SW6       30.00F WCI   8
SIDNEY         CLEAR     24  19  81 SW14      30.03S WCI  12
$$

NEZ057>060-069>072-079>082-031600-
SOUTHWEST NEBRASKA

CITY           SKY/WX    TMP DP  RH WIND       PRES   REMARKS
NORTH PLATTE   CLOUDY    33  24  69 S12       30.12R WCI  24
IMPERIAL       CLEAR     27  20  75 S8        30.11S WCI  19
LEXINGTON      CLOUDY    32  26  79 S7        30.17S WCI  26
MCCOOK         CLOUDY    28  23  81 CALM      30.15F
OGALLALA       CLOUDY    30  25  80 W5        30.08F WCI  26
$$

NEZ005>010-023>029-035>040-094-031600-
NORTH CENTRAL NEBRASKA

CITY           SKY/WX    TMP DP  RH WIND       PRES   REMARKS
VALENTINE      CLOUDY    35  26  69 S13       30.04F WCI  26
AINSWORTH      CLOUDY    34  28  78 S7        30.08S WCI  28
BROKEN BOW     CLOUDY    32  27  81 S8        30.13S WCI  25
O`NEILL        CLOUDY    31  29  92 S5        30.14S WCI  27
ORD            CLOUDY    32  25  75 S7        30.16S WCI  26
THEDFORD       CLOUDY    34  27  76 S12       30.07F WCI  25
$$

NEZ041-046>049-061>064-073>077-083>087-031600-
SOUTH CENTRAL NEBRASKA

CITY           SKY/WX    TMP DP  RH WIND       PRES   REMARKS
GRAND ISLAND   CLOUDY    31  29  92 S9        30.22R WCI  23
AURORA         CLOUDY    31  28  91 S6        30.23R WCI  25
HASTINGS       CLOUDY    31  27  85 S5        30.23R WCI  26
HEBRON         LGT SNOW  32  29  90 S5        30.26R WCI  27
HOLDREGE       FLURRIES  31  27  85 S6        30.19S WCI  25
KEARNEY *      CLOUDY    30  27  86 S10       30.20S WCI  21
YORK           CLOUDY    30  28  93 S6        30.24R WCI  24
$$

NEZ011>018-030>034-042>045-031600-
NORTHEAST NEBRASKA

CITY           SKY/WX    TMP DP  RH WIND       PRES   REMARKS
NORFOLK        CLOUDY    28  25  88 S8        30.21R WCI  20
ALBION         CLOUDY    28  25  90 SE6       30.19S FOG     WCI  21
BLAIR          PTSUNNY   31  29  92 SE7       30.24F WCI  24
FREMONT        CLOUDY    28  28 100 CALM      30.26S FOG
TEKAMAH        MOSUNNY   27  26  96 SE3       30.27F
WAYNE          CLOUDY    28  26  94 S3        30.22S
$$

NEZ050>053-065>068-078-088>093-031600-
SOUTHEAST NEBRASKA

CITY           SKY/WX    TMP DP  RH WIND       PRES   REMARKS
LINCOLN        CLOUDY    28  25  88 CALM      30.28R
OMAHA EPPLEY   CLOUDY    27  24  89 CALM      30.27F
BEATRICE       CLOUDY    32  30  91 S7        30.26R WCI  26
FALLS CITY       N/A    N/A N/A N/A MISG      30.28S
NEBRASKA CITY  PTSUNNY   29  29  99 CALM      30.28R
PLATTSMOUTH    CLOUDY    29  26  87 SE6       30.26F WCI  23
$$

NEZ044-045-051>053-067-031600-
OMAHA AREA

CITY           SKY/WX    TMP DP  RH WIND       PRES   REMARKS
OMAHA EPPLEY   CLOUDY    27  24  89 CALM      30.27F
BLAIR          PTSUNNY   31  29  92 SE7       30.24F WCI  24
FREMONT        CLOUDY    28  28 100 CALM      30.26S FOG
MILLARD        CLOUDY    28  26  91 CALM      30.27F
OFFUTT AFB     CLOUDY    28  28 100 E1        30.27S
PLATTSMOUTH    CLOUDY    29  26  87 SE6       30.26F WCI  23
WAHOO          CLOUDY    28  26  94 S3        30.26S
$$




USA.gov is the U.S. government's official web portal to all federal, state and local government web resources and services.